STARLINK-32442, 61729

Orbit data source: Space-Track

STARLINK-32442, 61729 is a payload satellite owned by SpaceX/Seattle (US) in LEO that was launched on Wed, 30 Oct 2024 UTC via an FALCON 9 launch vehicle from the Air Force Eastern Test Range (AFETR). Payload-class satellites include a variety of spacecraft equipped with specific instruments for various scientific and technological missions. These include communications satellites like Starlink; space stations such as the ISS; scientific satellites like the Hubble; Earth observation satellites from companies like Planet Labs, Umbra, and HawkEye 360; GPS; miniature CubeSats for education and research; and military/defense satellites.

Loading next visibility...
Identifier
61729, 2024-196Y
Orbit
LEO
Country
Flag of USUS
Related business
Manufacturer
SpaceX/Seattle
Mission
Operational Commercial Communications
Bus & Motor
STARLINK V2M, Unknown motor
Mass
730 kg wet, ~700 kg dry
Launch date (UTC)
2024-10-30 (2 years ago)
Launch vehicle
FALCON 9
Launch site
Air Force Eastern Test Range (AFETR)
Object type
Payload
Rocket body
Debris
Shape & HBR
Box + 2 Pan, 17.7 m
Radar Cross Section
33.884 m², Large (>1 m²)

Expand to show TLE details & history
Last TLE update: 12 hours ago

TLE from 12 hours ago
0 STARLINK-32442
1 61729U 24196Y   26175.11327731  .00001026  00000-0  41508-4 0  9994
2 61729  53.1573 326.7882 0001048  92.8717 267.2406 15.34398426 93457
Epoch: 2026-06-24T02:43Z
TLE epoch observation values (Epoch: 2026-06-24T02:43:07.159Z)
Latitude
0.00001°
Longitude
13.73323°
Altitude
463.644 km
Speed
7.636 km/s
True Right ascension
21h 47m 09s
True Declination
0° 00' 00"
Sunlit
Object was in full shadow at epoch
Visualization orbit readout
Latitude
Unknown
Longitude
Unknown
Altitude
Unknown
Speed
Unknown
Apparent Right ascension
Unknown
Apparent Declination
Unknown
Sunlit
N/A
Visualization observer readout
Local Sidereal Time
02:14:02
Azimuth
Unknown
Elevation
Unknown
Doppler factor
Unknown
Orbital elements
Apogee altitude
463.682 km
Perigee altitude
462.248 km
Semi-major axis
6,841.102 km
Eccentricity
0.0001
Inclination
53.1573°
RAAN
326.7882°
Arg. of periapsis
92.8717°
True anomaly
267.2286°
Mean anomaly
267.2406°
Eccentric anomaly
267.2346°
Mean motion
3.83578 °/min
Orbital period
93.85 mins
BSTAR
0.000041508
Loading maneuver chart data...
Computing Atmospheric mass density...
Loading historical data...
Loading historical data...
Loading historical data...
Loading historical data...
Loading historical data...
Loading historical data...
Loading historical data...

Documentation

Showing up to 5 results
|